Location: Ariel
(45.9570°N, 122.5700°W)
Time: 13:20:41
(UTC-07:00)

Transit 4A - Pass Details

Date: 22 July 2019
Orbit: 863 x 981 km, 66.8° (Epoch: 18 August)

Event Time Altitude Azimuth Distance (km) Brightness Sun altitude
Rises 08:21:01 0° 325° (NW) 3,689 10.7 25.4°
Reaches altitude 10° 08:24:54 10° 348° (NNW) 2,729 10.3 26.1°
Maximum altitude 08:28:30 15° 23° (NNE) 2,347 10.5 26.7°
Drops below altitude 10° 08:32:03 10° 57° (ENE) 2,692 11.4 27.3°
Sets 08:35:50 0° 80° (E) 3,612 12.2 28.0°
